SL-14 DEB

Satellite information

Favourite Embed

Satellite Type and Status

DEBRISIN ORBIT

Key statistics

Satellite SL-14 DEB at a glance.

Uptime

14240

Days in orbit

Revolutions

≈ 14.0

Per day

Orbit

LEO

Low Earth Orbit

Inclination

82.6

Latest

Satellite identification and parameters

Extended collection of information and parameters for SL-14 DEB.

Object identification

Identified? True

Debris? True

Object name: SL-14 DEB

International designator: 1986-101C

Object number (NORAD): 17268

Object ID (CCSDS): 17268

Country: COMMONWEALTH OF INDEPENDENT STATES (CIS)

Current information (Y/N): Y

RCS size: SMALL

Orbital parameters

Period: 102.984 minutes

Inclination: 82.6139 deg

SMA: 7277.902 km

Apoapsis: 919.419 km

Periapsis: 880.115 km

RAAN: 39.8413 deg

Eccentricy: 0.00270026

Argument of periapsis: 29.5148 deg

Mean anomaly: 350.0573 deg

Mean motion: 13.98277783 rev/day

Mean motion (dot): 0.0000071 rev/day2

B* drag term: 0.00048553363 1/REarth

Two-line elements (TLE)

Creation date: Dec. 12, 2025, 10:14 a.m.

Reference frame: TEME

Reference center: EARTH

Epoch: Dec. 12, 2025, 3:43 a.m. UTC

TLE line 0: 0 SL-14 DEB

TLE line 1: 1 17268U 86101C 25346.15542178 .00000710 00000-0 48553-3 0 9999

TLE line 2: 2 17268 82.6139 39.8413 0027003 29.5148 350.0573 13.98277783980683

Live tracking on map

Real-time ground track for satellite SL-14 DEB.

In-orbit conjunctions

A list of the most updated potential collisions computed for object SL-14 DEB.

Target Orbit TCA Probability of collision Miss distance Type
CZ-4C R/B LEO 2025-04-16 22:18:00 0.0002373862 906.0 (m) ROCKET BODY
FENGYUN 1C DEB SSO 2024-11-14 17:38:54 0.0001290754 730.0 (m) DEBRIS
FENGYUN 1C DEB SSO 2024-11-12 00:23:48 0.0001209547 73.0 (m) DEBRIS

Associated space launch

Ionospheric research satellite

SL-14 DEB was lifted into orbit during the mission ‘Tsiklon-3 | Ionozond-E’, on board a Tsiklon-3 space rocket.

The launch took place on Dec. 18, 1986, 8 a.m. from 32/2.

For more information about the launch, click the button.

Launch to space Tsiklon-3 | Ionozond-E
Tsiklon-3 | Ionozond-E

Agency: N/A

Status: Launch Successful

Launch date: Dec. 18, 1986, 8 a.m. UTC

Rocket: Tsiklon-3

Launch pad: 32/2

Location: Plesetsk Cosmodrome, Russian Federation

...

Latest news about this satellite

There are no fresh news available about this satellite. Check back as we update our databases every day.


Newsletter sign-up

Weekly statistics, charts and insights to help you stay on top of the space industry.